CZ-6A DEB, 54342

Orbit data source: Space-Track

CZ-6A DEB, 54342 is space debris in SSO originally from a launch on Fri, 11 Nov 2022 UTC launched from the Taiyaun Space Center, China (TSC). Debris objects in space refer to the collection of defunct objects orbiting the Earth. Examples of debris include non-operational satellites, rocket bodies, and fragments generated from explosions, collisions, or faulty payload assembly.

Loading next visibility...
Identifier
54342, 2022-151CM
Orbit
SSO
Country
Flag of CNCN / PRC
Related business
Manufacturer
SAST
Mission
Spacecraft
Bus & Motor
Unknown
Mass
Unknown
Launch date (UTC)
2022-11-11 (4 years ago)
Launch vehicle
Unknown
Launch site
Taiyaun Space Center, China (TSC)
Object type
Payload
Rocket body
Debris
Shape & HBR
Unknown shape, 0.2 m
Radar Cross Section
Medium (>0.1 m² and <1 m²)

Expand to show TLE details & history
Last TLE update: 20 hours ago

TLE from 20 hours ago
0 CZ-6A DEB
1 54342U 22151CM  26235.39200984  .00000057  00000-0  57225-4 0  9999
2 54342  98.8456 230.3022 0051905 162.5616 197.7351 14.08978308193755
Epoch: 2026-08-23T09:24Z
TLE epoch observation values (Epoch: 2026-08-23T09:24:29.650Z)
Latitude
-0.00003°
Longitude
117.48994°
Altitude
901.588 km
Speed
7.383 km/s
True Right ascension
15h 21m 12s
True Declination
0° 00' 00"
Sunlit
Object was in daylight at epoch
Visualization orbit readout
Latitude
Unknown
Longitude
Unknown
Altitude
Unknown
Speed
Unknown
Apparent Right ascension
Unknown
Apparent Declination
Unknown
Sunlit
N/A
Visualization observer readout
Local Sidereal Time
20:44:49
Azimuth
Unknown
Elevation
Unknown
Doppler factor
Unknown
Orbital elements
Apogee altitude
897.62 km
Perigee altitude
822.48 km
Semi-major axis
7,238.187 km
Eccentricity
0.00519
Inclination
98.8456°
RAAN
230.3022°
Arg. of periapsis
162.5616°
True anomaly
197.55503°
Mean anomaly
197.7351°
Eccentric anomaly
197.64495°
Mean motion
3.52451 °/min
Orbital period
102.14 mins
BSTAR
0.000057225
Loading maneuver chart data...
Computing Atmospheric mass density...
Loading historical data...
Loading historical data...
Loading historical data...
Loading historical data...
Loading historical data...
Loading historical data...
Loading historical data...

Documentation

Showing up to 5 results
|